TimeEST,TemperatureF,Dew PointF,Humidity,Sea Level PressureIn,VisibilityMPH,Wind Direction,Wind SpeedMPH,Gust SpeedMPH,PrecipitationIn,Events,Conditions,WindDirDegrees,DateUTC
12:56 AM,33.1,16.0,50,29.67,10.0,West,15.0,23.0,N/A,,Clear,270,2012-11-25 05:56:00
1:56 AM,33.1,17.1,52,29.68,10.0,West,13.8,25.3,N/A,,Clear,280,2012-11-25 06:56:00
2:56 AM,32.0,18.0,56,29.69,10.0,West,10.4,-,N/A,,Clear,280,2012-11-25 07:56:00
3:56 AM,32.0,18.0,56,29.70,10.0,West,11.5,19.6,N/A,,Clear,280,2012-11-25 08:56:00
4:56 AM,32.0,18.0,56,29.73,10.0,West,6.9,17.3,N/A,,Clear,270,2012-11-25 09:56:00
5:56 AM,32.0,18.0,56,29.75,10.0,West,11.5,-,N/A,,Clear,280,2012-11-25 10:56:00
6:56 AM,30.9,17.1,57,29.78,10.0,West,11.5,23.0,N/A,,Clear,280,2012-11-25 11:56:00
7:56 AM,33.1,17.1,52,29.78,10.0,West,19.6,27.6,N/A,,Clear,280,2012-11-25 12:56:00
8:56 AM,36.0,17.1,46,29.78,10.0,West,16.1,25.3,N/A,,Clear,280,2012-11-25 13:56:00
9:56 AM,37.0,17.1,44,29.77,10.0,West,20.7,32.2,N/A,,Clear,280,2012-11-25 14:56:00
10:56 AM,37.9,18.0,45,29.76,10.0,West,20.7,29.9,N/A,,Clear,260,2012-11-25 15:56:00
11:56 AM,39.0,18.0,43,29.74,10.0,West,16.1,27.6,N/A,,Clear,280,2012-11-25 16:56:00
12:56 PM,39.9,18.0,41,29.73,10.0,West,15.0,24.2,N/A,,Clear,270,2012-11-25 17:56:00
1:56 PM,39.9,18.0,41,29.73,10.0,West,13.8,20.7,N/A,,Clear,280,2012-11-25 18:56:00
2:56 PM,39.9,18.0,41,29.75,10.0,West,16.1,25.3,N/A,,Scattered Clouds,270,2012-11-25 19:56:00
3:56 PM,37.9,19.0,47,29.77,10.0,West,10.4,-,N/A,,Mostly Cloudy,270,2012-11-25 20:56:00
4:56 PM,37.9,19.9,48,29.78,10.0,West,10.4,-,N/A,,Partly Cloudy,270,2012-11-25 21:56:00
5:56 PM,37.9,19.0,47,29.81,10.0,West,10.4,21.9,N/A,,Scattered Clouds,280,2012-11-25 22:56:00
6:56 PM,36.0,19.9,52,29.83,10.0,West,8.1,-,N/A,,Clear,270,2012-11-25 23:56:00
7:56 PM,32.0,21.0,64,29.84,10.0,WSW,5.8,-,N/A,,Clear,250,2012-11-26 00:56:00
8:56 PM,34.0,21.0,59,29.85,10.0,West,5.8,-,N/A,,Clear,260,2012-11-26 01:56:00
9:56 PM,36.0,23.0,59,29.86,10.0,West,8.1,-,N/A,,Clear,270,2012-11-26 02:56:00
10:56 PM,36.0,24.1,62,29.88,10.0,West,11.5,-,N/A,,Clear,260,2012-11-26 03:56:00
11:56 PM,35.1,24.1,64,29.88,10.0,West,10.4,-,N/A,,Clear,260,2012-11-26 04:56:00